Inisheer Aerodrome


Codes: EIIR/INQ
Name: Inisheer Aerodrome
City: Inis Oirr
Country: Ireland
Elevation: 40 ft.

Photos at Inisheer Aerodrome


   Photos courtesy of SpottingLog. You can add your own sightings and photos by signing up for a free trial today.



No photos found.

Weather at Inisheer Aerodrome


Time (UTC)DescriptionTempratureWindCloud coverageVisibilityPressureHumidity
19-Apr-2024 03:00Overcast Clouds10°C18 mph, NW100%10000m1024hPa95%
19-Apr-2024 06:00Light Rain10°C18 mph, NW100%10000m1024hPa95%
19-Apr-2024 09:00Overcast Clouds10°C16 mph, NW97%10000m1025hPa93%
19-Apr-2024 12:00Broken Clouds10°C16 mph, NW76%10000m1025hPa93%
19-Apr-2024 15:00Few Clouds11°C18 mph, NW14%10000m1026hPa91%
19-Apr-2024 18:00Few Clouds11°C13 mph, NW16%10000m1026hPa81%
19-Apr-2024 21:00Few Clouds10°C11 mph, NE12%10000m1028hPa82%
20-Apr-2024 00:00Few Clouds9°C11 mph, NE17%10000m1029hPa78%
20-Apr-2024 03:00Few Clouds8°C9 mph, E19%10000m1029hPa78%
20-Apr-2024 06:00Scattered Clouds8°C9 mph, E40%10000m1030hPa78%
20-Apr-2024 09:00Overcast Clouds8°C7 mph, E100%10000m1031hPa71%
20-Apr-2024 12:00Overcast Clouds10°C4 mph, E100%10000m1031hPa66%
20-Apr-2024 15:00Overcast Clouds11°C2 mph, N100%10000m1031hPa63%
20-Apr-2024 18:00Overcast Clouds12°C2 mph, N100%10000m1031hPa61%
20-Apr-2024 21:00Overcast Clouds11°C4 mph, NW100%10000m1032hPa68%
21-Apr-2024 00:00Broken Clouds11°C2 mph, NW61%10000m1032hPa73%
21-Apr-2024 03:00Few Clouds10°C0 mph, E18%10000m1032hPa76%
21-Apr-2024 06:00Few Clouds10°C2 mph, E16%10000m1032hPa76%
21-Apr-2024 09:00Few Clouds10°C4 mph, E14%10000m1033hPa78%
21-Apr-2024 12:00Few Clouds11°C2 mph, NW14%10000m1034hPa72%
21-Apr-2024 15:00Scattered Clouds11°C9 mph, NW29%10000m1033hPa72%
21-Apr-2024 18:00Scattered Clouds11°C9 mph, NW42%10000m1033hPa83%
21-Apr-2024 21:00Clear Sky11°C7 mph, N10%10000m1034hPa84%
22-Apr-2024 00:00Scattered Clouds10°C11 mph, NE46%10000m1034hPa85%
22-Apr-2024 03:00Broken Clouds10°C7 mph, NE82%10000m1034hPa81%
22-Apr-2024 06:00Overcast Clouds10°C4 mph, NE91%10000m1034hPa82%
22-Apr-2024 09:00Overcast Clouds10°C4 mph, N100%10000m1034hPa84%
22-Apr-2024 12:00Broken Clouds11°C7 mph, W57%10000m1033hPa83%
22-Apr-2024 15:00Clear Sky12°C9 mph, NW8%10000m1032hPa83%
22-Apr-2024 18:00Scattered Clouds12°C16 mph, NW50%10000m1031hPa80%
22-Apr-2024 21:00Scattered Clouds11°C9 mph, N39%10000m1032hPa87%
23-Apr-2024 00:00Broken Clouds10°C7 mph, N60%10000m1031hPa89%
23-Apr-2024 03:00Broken Clouds10°C7 mph, NW54%10000m1030hPa88%
23-Apr-2024 06:00Broken Clouds10°C9 mph, N77%10000m1029hPa90%
23-Apr-2024 09:00Overcast Clouds10°C9 mph, N100%10000m1029hPa84%
23-Apr-2024 12:00Overcast Clouds11°C9 mph, NW100%10000m1028hPa80%
23-Apr-2024 15:00Overcast Clouds12°C13 mph, NW100%10000m1027hPa81%
23-Apr-2024 18:00Overcast Clouds12°C13 mph, NW100%10000m1026hPa82%
23-Apr-2024 21:00Scattered Clouds10°C16 mph, NW34%10000m1026hPa87%
24-Apr-2024 00:00Scattered Clouds10°C16 mph, NW42%10000m1025hPa92%